Regional Weather Roundup
Issued by NWS

Home | Current Version | Previous Version | Graphics & Text | Print | Product List | Glossary On
Versions: 1 2 3 4 5 6 7 8 9 10 11 12 13 14 15 16 17 18 19 20 21 22 23 24 25 26 27 28 29 30 31 32 33 34 35 36 37 38 39 40 41 42 43 44 45 46 47 48 49 50
586
ASUS43 KOAX 291810
RWRNE

WEATHER ROUNDUP FOR NEBRASKA
NATIONAL WEATHER SERVICE OMAHA NE
100 PM CDT THU SEP 29 2016

NOTES: SATELLITE DATA IS BEING USED TO AUGMENT CLOUD COVER ABOVE
       12000 FEET.
       "FAIR" INDICATES FEW OR NO CLOUDS BELOW 12,000 FEET WITH NO
       SIGNIFICANT WEATHER AND/OR OBSTRUCTIONS TO VISIBILITY.

  * THESE STATIONS DO NOT REPORT WEATHER SUCH AS RAIN...SNOW OR FOG.

NEZ001>004-019>022-054>056-291900-
NEBRASKA PANHANDLE

CITY           SKY/WX    TMP DP  RH WIND       PRES   REMARKS
SCOTTSBLUFF    FAIR      73  47  39 SE14      30.31F
6HR MIN TEMP:  45; 6HR MAX TEMP:  73;

ALLIANCE       FAIR      73  43  33 S20G26    30.34F
6HR MIN TEMP:  39; 6HR MAX TEMP:  73;

CHADRON        FAIR      77  44  30 S15       30.28F
6HR MIN TEMP:  49; 6HR MAX TEMP:  77;

KIMBALL        FAIR      71  45  39 SE14G23   30.36F
SIDNEY         FAIR      74  44  34 SE23G29   30.35F
6HR MIN TEMP:  44; 6HR MAX TEMP:  74;

$$

NEZ057>060-069>072-079>082-291900-
SOUTHWEST NEBRASKA

CITY           SKY/WX    TMP DP  RH WIND       PRES   REMARKS
NORTH PLATTE   FAIR      69  43  38 S6        30.40F
6HR MIN TEMP:  33; 6HR MAX TEMP:  69;

IMPERIAL       FAIR      69  41  36 S15G22    30.39F
6HR MIN TEMP:  39; 6HR MAX TEMP:  70;

LEXINGTON      FAIR      64  44  47 E3        30.42F
MCCOOK         FAIR      67  44  43 SE10      30.41F
6HR MIN TEMP:  38; 6HR MAX TEMP:  67;

OGALLALA       FAIR      72  40  31 SE14G20   30.38F
$$

NEZ005>010-023>029-035>040-094-291900-
NORTH CENTRAL NEBRASKA

CITY           SKY/WX    TMP DP  RH WIND       PRES   REMARKS
VALENTINE      FAIR      68  42  38 S12       30.37F
6HR MIN TEMP:  34; 6HR MAX TEMP:  69;

AINSWORTH      FAIR      67  45  45 S8        30.40F
BROKEN BOW     FAIR      64  44  48 SE9       30.42F
6HR MIN TEMP:  32; 6HR MAX TEMP:  64;

O`NEILL        FAIR      64  44  47 SE5       30.44F
ORD            FAIR      64  44  48 VRB6      30.42F
6HR MIN TEMP:  34; 6HR MAX TEMP:  64; 6HR PCP: TRACE;

THEDFORD       FAIR      69  44  40 S10G16    30.40F
$$

NEZ041-046>049-061>064-073>077-083>087-291900-
SOUTH CENTRAL NEBRASKA

CITY           SKY/WX    TMP DP  RH WIND       PRES   REMARKS
GRAND ISLAND   FAIR      62  45  53 SE5       30.45F
6HR MIN TEMP:  38; 6HR MAX TEMP:  62;

AURORA         FAIR      63  46  52 NE3       30.44F
HASTINGS       FAIR      62  45  53 CALM      30.45F
6HR MIN TEMP:  39; 6HR MAX TEMP:  63;

HEBRON         FAIR      65  47  51 E6        30.43F
HOLDREGE       FAIR      64  40  41 E6        30.43F
KEARNEY *      FAIR      63  45  51 CALM      30.43F VSB 1
YORK           PTSUNNY   63  48  59 CALM      30.44F
$$

NEZ011>018-030>034-042>045-291900-
NORTHEAST NEBRASKA

CITY           SKY/WX    TMP DP  RH WIND       PRES   REMARKS
NORFOLK        FAIR      64  47  53 VRB3      30.44F
6HR MIN TEMP:  37; 6HR MAX TEMP:  64;

ALBION         FAIR      64  45  50 E6        30.44F
BLAIR          FAIR      65  51  59 N7        30.42F
FREMONT        FAIR      64  49  58 CALM      30.43F
TEKAMAH        FAIR      68  49  50 N9        30.43F
6HR MIN TEMP:  41; 6HR MAX TEMP:  68;

WAYNE          FAIR      64  50  59 E3        30.45F
$$

NEZ050>053-065>068-078-088>093-291900-
SOUTHEAST NEBRASKA

CITY           SKY/WX    TMP DP  RH WIND       PRES   REMARKS
LINCOLN        FAIR      68  49  50 VRB7      30.44F
6HR MIN TEMP:  42; 6HR MAX TEMP:  68;

OMAHA EPPLEY   FAIR      68  50  52 N10       30.42F
6HR MIN TEMP:  45; 6HR MAX TEMP:  68;

BEATRICE       PTSUNNY   67  50  54 N7        30.42F
FALLS CITY     FAIR      68  51  54 N9        30.39F
6HR MIN TEMP:  46; 6HR MAX TEMP:  68;

NEBRASKA CITY  FAIR      67  42  39 NE10      30.41F
PLATTSMOUTH    FAIR      66  45  45 N8        30.41F
$$

NEZ044-045-051>053-067-291900-
OMAHA AREA

CITY           SKY/WX    TMP DP  RH WIND       PRES   REMARKS
OMAHA EPPLEY   FAIR      68  50  52 N10       30.42F
6HR MIN TEMP:  45; 6HR MAX TEMP:  68;

BLAIR          FAIR      65  51  59 N7        30.42F
FREMONT        FAIR      64  49  58 CALM      30.43F
MILLARD        FAIR      66  51  60 CALM      30.42F
OFFUTT AFB     MOSUNNY   67  51  56 N8        30.41F
PLATTSMOUTH    FAIR      66  45  45 N8        30.41F
WAHOO          MOCLDY    67  48  49 E3        30.42F
$$




USA.gov is the U.S. government's official web portal to all federal, state and local government web resources and services.